This demonstration page uses our WeatherBlox Daily Observations layout. Learn more.

Left ArrowRight Arrow

Hourly Observations for April 2, 2020

Temp ( °F °C ) Dew Point ( °F °C ) Humidity (%) Winds ( mph kmh ) Pressure ( in mb ) Visibility ( mi km ) Precip ( " mm )
12:15 am 00:15 Cloudy 48 9 36 2 62 62 NNW 12 19 29.9 1012 10 16.0934 0 0
12:35 am 00:35 Cloudy 50 10 36 2 58 58 NNE 12 19 29.91 1013 10 16.0934 0 0
12:55 am 00:55 Mostly Cloudy 48 9 32 0 54 54 NE 12 19 29.92 1013 10 16.0934 0 0
1:55 am 01:55 Clear 45 7 28 -2 53 53 NNE 6 9 29.94 1014 10 16.0934 0 0
2:15 am 02:15 Clear 43 6 28 -2 57 57 NNE 5 7 29.95 1014 10 16.0934 0 0
2:35 am 02:35 Clear 43 6 30 -1 61 61 N 5 7 29.96 1015 10 16.0934 0 0
2:55 am 02:55 Clear 41 5 30 -1 66 66 N 5 7 29.96 1015 10 16.0934 0 0
3:15 am 03:15 Clear 39 4 30 -1 70 70 NW 3 6 29.97 1015 10 16.0934 0 0
3:35 am 03:35 Clear 37 3 32 0 81 81 NNW 8 13 29.97 1015 10 16.0934 0 0
3:55 am 03:55 Clear 37 3 30 -1 75 75 NW 8 13 29.97 1015 10 16.0934 0 0
4:15 am 04:15 Clear 39 4 30 -1 70 70 NW 15 24 29.97 1015 10 16.0934 0 0
4:35 am 04:35 Clear 41 5 30 -1 66 66 NW 12 19 29.96 1015 10 16.0934 0 0
4:55 am 04:55 Clear 41 5 30 -1 66 66 NW 13 20 29.96 1015 10 16.0934 0 0
5:15 am 05:15 Clear 41 5 28 -2 61 61 NW 12 19 29.96 1015 10 16.0934 0 0
5:35 am 05:35 Clear 41 5 28 -2 61 61 NW 9 15 29.96 1015 10 16.0934 0 0
5:55 am 05:55 Clear 37 3 28 -2 70 70 NW 6 9 29.97 1015 10 16.0934 0 0
6:15 am 06:15 Clear 37 3 28 -2 70 70 NW 7 11 29.97 1015 10 16.0934 0 0
6:35 am 06:35 Clear 37 3 28 -2 70 70 NW 6 9 29.97 1015 10 16.0934 0 0
6:55 am 06:55 Sunny 37 3 28 -2 70 70 WNW 7 11 29.97 1015 10 16.0934 0 0
7:15 am 07:15 Sunny 37 3 28 -2 70 70 WNW 9 15 29.97 1015 10 16.0934 0 0
7:35 am 07:35 Sunny 39 4 30 -1 70 70 WNW 9 15 29.98 1015 10 16.0934 0 0
7:55 am 07:55 Sunny 41 5 30 -1 66 66 NW 10 17 29.97 1015 10 16.0934 0 0
8:15 am 08:15 Sunny 43 6 32 0 66 66 NW 13 20 29.98 1015 10 16.0934 0 0
8:35 am 08:35 Sunny 45 7 32 0 61 61 NW 9 15 29.98 1015 10 16.0934 0 0
8:55 am 08:55 Sunny 45 7 32 0 61 61 NW 16 26 29.98 1015 10 16.0934 0 0
9:15 am 09:15 Sunny 45 7 32 0 61 61 NW 18 30 29.98 1015 10 16.0934 0 0
9:35 am 09:35 Sunny 46 8 32 0 57 57 NNW 16 26 29.98 1015 10 16.0934 0 0
9:55 am 09:55 Sunny 46 8 32 0 57 57 NW 13 20 29.97 1015 10 16.0934 0 0
10:15 am 10:15 Sunny 50 10 32 0 50 50 NNW 15 24 29.97 1015 10 16.0934 0 0
10:35 am 10:35 Sunny 50 10 32 0 50 50 NNW 17 28 29.96 1014 10 16.0934 0 0
10:55 am 10:55 Sunny 52 11 32 0 47 47 NW 20 31 29.95 1014 10 16.0934 0 0
11:15 am 11:15 Sunny 52 11 30 -1 44 44 N 13 20 29.94 1014 10 16.0934 0 0
11:35 am 11:35 Sunny 52 11 30 -1 44 44 NNW 23 37 29.94 1014 10 16.0934 0 0
11:55 am 11:55 Partly Cloudy 54 12 30 -1 41 41 NW 23 37 29.93 1014 10 16.0934 0 0
12:15 pm 12:15 Partly Cloudy 54 12 30 -1 41 41 NNW 25 41 29.92 1013 10 16.0934 0 0
12:35 pm 12:35 Partly Cloudy 55 13 30 -1 38 38 N 23 37 29.91 1013 10 16.0934 0 0
12:55 pm 12:55 Partly Cloudy 55 13 32 0 41 41 NW 22 35 29.9 1013 10 16.0934 0 0
1:15 pm 13:15 Sunny 55 13 32 0 41 41 NNW 26 43 29.89 1012 10 16.0934 0 0
1:35 pm 13:35 Sunny 55 13 30 -1 38 38 NW 21 33 29.88 1012 10 16.0934 0 0
1:55 pm 13:55 Partly Cloudy 57 14 32 0 39 39 NW 22 35 29.88 1012 10 16.0934 0 0
2:15 pm 14:15 Partly Cloudy 59 15 32 0 36 36 NNW 24 39 29.88 1012 10 16.0934 0 0
2:35 pm 14:35 Sunny 59 15 32 0 36 36 N 21 33 29.86 1011 10 16.0934 0 0
2:55 pm 14:55 Sunny 59 15 32 0 36 36 NNW 29 46 29.86 1011 10 16.0934 0 0
3:15 pm 15:15 Partly Cloudy 59 15 32 0 36 36 N 24 39 29.85 1011 10 16.0934 0 0
3:35 pm 15:35 Sunny 61 16 32 0 34 34 NNW 24 39 29.84 1010 10 16.0934 0 0
3:55 pm 15:55 Sunny 61 16 32 0 34 34 NNW 20 31 29.83 1010 10 16.0934 0 0
4:35 pm 16:35 Partly Cloudy 61 16 32 0 34 34 NNW 26 43 29.83 1010 10 16.0934 0 0
5:55 pm 17:55 Sunny 61 16 32 0 34 34 NW 23 37 29.81 1009 10 16.0934 0 0
6:35 pm 18:35 Sunny 59 15 32 0 36 36 NNW 24 39 29.82 1010 10 16.0934 0 0
7:15 pm 19:15 Sunny 59 15 32 0 36 36 NNW 24 39 29.82 1010 10 16.0934 0 0
7:35 pm 19:35 Sunny 57 14 32 0 39 39 NNW 13 20 29.83 1010 10 16.0934 0 0
9:55 pm 21:55 Clear 54 12 30 -1 41 41 NNW 21 33 29.86 1011 10 16.0934 0 0
10:35 pm 22:35 Clear 54 12 30 -1 41 41 NNW 14 22 29.87 1012 10 16.0934 0 0
10:55 pm 22:55 Clear 54 12 30 -1 41 41 NNW 21 33 29.87 1012 10 16.0934 0 0
11:15 pm 23:15 Clear 52 11 28 -2 41 41 NNW 14 22 29.87 1012 10 16.0934 0 0
11:35 pm 23:35 Clear 52 11 30 -1 44 44 NNW 13 20 29.88 1012 10 16.0934 0 0
11:55 pm 23:55 Clear 52 11 30 -1 44 44 NNW 9 15 29.88 1012 10 16.0934 0 0

Powered by AerisWeather